Weather in Kyzyl-Khaya

Russia / Tyva Republic     50°02′45″N   89°52′06″E
temp.,
°C
wind,
m/s
gust,
m/s
humid.,
%
clouds,
%
prec.,
mm/h
press.,
hPa
HPBL,
m
22 january, sat
sat2201:00−24wsw329743 0.0 103110
04:00−24wsw339712 0.0 103210
07:00−24wsw339550 0.0 103310
10:00−21wsw339046 0.0 103114
13:00−17nw22857 0.0 1027119
16:00−19wnw22935 0.0 103015
19:00−23wsw44878 0.0 103515
22:00−23wsw44847 0.0 103614
23 january, sun
sun2301:00−23wsw44835 0.0 103615
04:00−23wsw44815 0.0 103514
07:00−23wsw43809 0.0 103612
10:00−22wsw327850 0.0 103611
13:00−16nnw116861 0.0 103063
16:00−19wnw117954 0.0 10329
19:00−24sw335451 0.0 103910
22:00−24sw33395 0.0 10399
24 january, mon
mon2401:00−25sw33380 0.0 10399
04:00−25sw33310 0.0 10389
07:00−25sw33280 0.0 10379
10:00−23ssw32360 0.0 10359
13:00−18se22602 0.0 102962
16:00−21se12792 0.0 103019
19:00−26wsw22586 0.0 10359
22:00−27wsw22634 0.0 103810
25 january, tue
tue2501:00−28wsw32777 0.0 104111
04:00−28wsw2289100 0.0 104011
07:00−27w2290100 0.0 104014
10:00−24wnw1192100 0.0 103828
13:00−22n118948 0.0 1035155
16:00−23nw119752 0.0 103637
19:00−27wsw33938 0.0 104212
22:00−27wsw33889 0.0 104111
26 january, wed
wed2601:00−27wsw33866 0.0 104012
04:00−26wsw43775 0.0 103912
07:00−27wsw33717 0.0 104012
10:00−24wsw33661 0.0 103814
13:00−19wnw226550 0.0 1030132
16:00−20w228088 0.0 103117
19:00−23wsw446890 0.0 103519
22:00−22wsw436584 0.0 103514